| time (UTC) | temp F | wind direction | speed knots | gust knots | rain 1hr in | rain 24hr in | rain mn in | humidity % | barometer mb |
| 20260902040033 | 57 | 174 | 0.0 | 0.0 | 0.01 | 0.32 | 0.00 | 88 | 1018.3 |
| 20260902034532 | 57 | 174 | 0.0 | 2.6 | 0.00 | 0.31 | 0.31 | 88 | 1017.9 |
| 20260902033032 | 57 | 158 | 0.0 | 0.0 | 0.00 | 0.31 | 0.31 | 88 | 1017.9 |
| 20260902031532 | 57 | 167 | 0.0 | 0.0 | 0.00 | 0.31 | 0.31 | 88 | 1018.1 |
| 20260902030030 | 57 | 174 | 0.0 | 0.0 | 0.00 | 0.31 | 0.31 | 88 | 1018.2 |
| 20260902024528 | 58 | 173 | 0.0 | 2.6 | 0.00 | 0.31 | 0.31 | 88 | 1018.2 |
| 20260902023039 | 58 | 180 | 0.9 | 4.3 | 0.00 | 0.31 | 0.31 | 88 | 1018.1 |
| 20260902021538 | 58 | 178 | 0.0 | 4.3 | 0.00 | 0.31 | 0.31 | 88 | 1017.9 |
| 20260902020024 | 59 | 173 | 0.0 | 0.0 | 0.00 | 0.31 | 0.31 | 88 | 1017.7 |
| 20260902014524 | 59 | 171 | 0.0 | 0.0 | 0.00 | 0.31 | 0.31 | 88 | 1017.3 |
| 20260902013023 | 59 | 145 | 0.0 | 0.0 | 0.00 | 0.31 | 0.31 | 88 | 1017.5 |
| 20260902011522 | 59 | 97 | 0.0 | 0.0 | 0.00 | 0.31 | 0.31 | 88 | 1017.6 |
| 20260902010021 | 59 | 275 | 0.0 | 0.0 | 0.00 | 0.31 | 0.31 | 88 | 1017.5 |
| 20260902004520 | 59 | 275 | 0.0 | 0.0 | 0.00 | 0.31 | 0.31 | 88 | 1017.5 |
| 20260902003019 | 59 | 185 | 0.0 | 0.0 | 0.00 | 0.31 | 0.31 | 88 | 1017.3 |
| 20260902001517 | 59 | 172 | 0.0 | 0.0 | 0.00 | 0.31 | 0.31 | 88 | 1017.1 |
| 20260902000016 | 59 | 360 | 0.0 | 0.0 | 0.00 | 0.31 | 0.31 | 88 | 1016.8 |
| 20260901234513 | 59 | 173 | 0.0 | 0.0 | 0.00 | 0.31 | 0.31 | 88 | 1016.7 |
| 20260901233013 | 59 | 184 | 0.0 | 0.0 | 0.00 | 0.31 | 0.31 | 88 | 1016.7 |
| 20260901231513 | 59 | 181 | 0.0 | 0.0 | 0.00 | 0.31 | 0.31 | 88 | 1016.7 |
| 20260901230013 | 60 | 281 | 0.0 | 0.0 | 0.00 | 0.31 | 0.31 | 88 | 1016.5 |
| 20260901224512 | 60 | 169 | 0.0 | 0.0 | 0.00 | 0.31 | 0.31 | 88 | 1016.6 |
| 20260901223017 | 60 | 226 | 0.0 | 0.0 | 0.00 | 0.31 | 0.31 | 88 | 1016.5 |
| 20260901221510 | 61 | 233 | 0.0 | 0.0 | 0.00 | 0.31 | 0.31 | 88 | 1016.6 |
| 20260901220015 | 61 | 200 | 0.0 | 0.0 | 0.00 | 0.31 | 0.31 | 88 | 1016.5 |
| 20260901214509 | 61 | 207 | 0.0 | 0.0 | 0.00 | 0.31 | 0.31 | 88 | 1016.3 |
| 20260901213019 | 60 | 179 | 0.0 | 0.0 | 0.00 | 0.31 | 0.31 | 88 | 1016.2 |
| 20260901211511 | 60 | 214 | 0.0 | 0.0 | 0.00 | 0.31 | 0.31 | 88 | 1016.1 |
| 20260901210008 | 61 | 177 | 0.0 | 0.0 | 0.00 | 0.31 | 0.31 | 88 | 1016.1 |
| 20260901204507 | 61 | 178 | 0.0 | 0.0 | 0.00 | 0.31 | 0.31 | 88 | 1016.1 |
| 20260901203026 | 61 | 277 | 0.0 | 0.0 | 0.00 | 0.31 | 0.31 | 88 | 1015.9 |
| 20260901201507 | 61 | 217 | 0.0 | 1.7 | 0.00 | 0.31 | 0.31 | 88 | 1015.9 |
| 20260901200006 | 61 | 243 | 0.0 | 7.0 | 0.00 | 0.31 | 0.31 | 88 | 1015.7 |
| 20260901194505 | 61 | 158 | 0.0 | 2.6 | 0.00 | 0.31 | 0.31 | 88 | 1015.5 |
| 20260901193005 | 61 | 192 | 0.0 | 0.0 | 0.00 | 0.31 | 0.31 | 88 | 1015.6 |
| 20260901191504 | 60 | 255 | 0.0 | 0.0 | 0.00 | 0.31 | 0.31 | 88 | 1015.7 |
| 20260901190007 | 60 | 297 | 0.0 | 1.7 | 0.00 | 0.31 | 0.31 | 87 | 1015.8 |
| 20260901184505 | 60 | 30 | 0.0 | 1.7 | 0.00 | 0.31 | 0.31 | 87 | 1015.8 |
| 20260901183002 | 60 | 234 | 0.0 | 1.7 | 0.01 | 0.31 | 0.31 | 87 | 1015.8 |
| 20260901181501 | 59 | 200 | 0.0 | 0.0 | 0.01 | 0.31 | 0.31 | 88 | 1015.8 |
| 20260901180002 | 59 | 182 | 0.0 | 0.0 | 0.01 | 0.31 | 0.31 | 88 | 1015.5 |
| 20260901174602 | 59 | 180 | 0.0 | 0.0 | 0.01 | 0.31 | 0.31 | 88 | 1015.6 |
| 20260901173104 | 59 | 262 | 0.0 | 0.0 | 0.01 | 0.31 | 0.31 | 88 | 1015.5 |
| 20260901171559 | 58 | 254 | 0.0 | 0.9 | 0.00 | 0.30 | 0.30 | 88 | 1015.6 |
| 20260901170107 | 58 | 300 | 0.0 | 0.0 | 0.00 | 0.30 | 0.30 | 88 | 1015.6 |
| 20260901164613 | 58 | 248 | 0.0 | 0.0 | 0.01 | 0.30 | 0.30 | 88 | 1015.7 |
| 20260901163058 | 58 | 173 | 0.0 | 0.9 | 0.02 | 0.30 | 0.30 | 88 | 1015.6 |
| 20260901161559 | 58 | 109 | 0.0 | 8.7 | 0.02 | 0.30 | 0.30 | 88 | 1015.2 |
| 20260901160058 | 58 | 22 | 0.0 | 5.2 | 0.02 | 0.30 | 0.30 | 88 | 1015.0 |
| 20260901154553 | 58 | 34 | 0.0 | 3.5 | 0.02 | 0.28 | 0.28 | 88 | 1015.2 |
| 20260901153049 | 58 | 186 | 0.0 | 0.0 | 0.01 | 0.28 | 0.28 | 88 | 1015.1 |
| 20260901151650 | 58 | 109 | 0.0 | 0.0 | 0.01 | 0.28 | 0.28 | 88 | 1015.4 |
| 20260901150048 | 58 | 244 | 0.0 | 2.6 | 0.01 | 0.28 | 0.28 | 88 | 1015.6 |
| 20260901144548 | 58 | 273 | 0.0 | 0.0 | 0.00 | 0.27 | 0.27 | 88 | 1015.4 |
| 20260901143048 | 58 | 23 | 0.0 | 3.5 | 0.00 | 0.27 | 0.27 | 88 | 1015.1 |
| 20260901141546 | 58 | 266 | 0.0 | 0.0 | 0.00 | 0.27 | 0.27 | 88 | 1015.1 |
| 20260901140053 | 58 | 169 | 0.0 | 0.0 | 0.00 | 0.27 | 0.27 | 88 | 1015.2 |
| 20260901134604 | 58 | 159 | 0.0 | 0.0 | 0.00 | 0.27 | 0.27 | 88 | 1015.3 |
| 20260901133049 | 59 | 198 | 0.0 | 0.0 | 0.00 | 0.27 | 0.27 | 88 | 1015.5 |
| 20260901131543 | 59 | 198 | 0.0 | 0.0 | 0.00 | 0.27 | 0.27 | 88 | 1015.7 |
| 20260901130044 | 59 | 12 | 0.0 | 0.0 | 0.00 | 0.27 | 0.27 | 88 | 1015.6 |
| 20260901124539 | 59 | 284 | 0.0 | 0.0 | 0.01 | 0.27 | 0.27 | 88 | 1015.7 |
| 20260901123036 | 59 | 316 | 0.0 | 0.0 | 0.03 | 0.27 | 0.27 | 88 | 1015.8 |
| 20260901121533 | 59 | 351 | 0.0 | 0.0 | 0.08 | 0.27 | 0.27 | 88 | 1015.8 |
| 20260901120047 | 60 | 351 | 0.0 | 0.0 | 0.15 | 0.27 | 0.27 | 88 | 1015.9 |
| 20260901114530 | 60 | 355 | 0.0 | 0.0 | 0.19 | 0.26 | 0.26 | 89 | 1015.8 |
| 20260901113032 | 60 | 351 | 0.0 | 0.0 | 0.20 | 0.24 | 0.24 | 89 | 1015.8 |
| 20260901111526 | 61 | 28 | 0.0 | 0.0 | 0.17 | 0.18 | 0.18 | 89 | 1015.5 |
| 20260901110024 | 61 | 360 | 0.0 | 0.0 | 0.12 | 0.12 | 0.12 | 89 | 1015.9 |
| 20260901104525 | 61 | 360 | 0.0 | 0.0 | 0.07 | 0.07 | 0.07 | 89 | 1016.1 |
| 20260901103027 | 61 | 360 | 0.0 | 0.0 | 0.04 | 0.04 | 0.04 | 89 | 1015.7 |
| 20260901101521 | 61 | 360 | 0.0 | 0.0 | 0.01 | 0.01 | 0.01 | 89 | 1015.7 |
| 20260901100022 | 61 | 319 | 0.0 | 0.0 | 0.00 | 0.00 | 0.00 | 89 | 1015.4 |
| 20260901094527 | 61 | 319 | 0.0 | 0.0 | 0.00 | 0.00 | 0.00 | 89 | 1015.1 |
| 20260901093019 | 62 | 319 | 0.0 | 0.0 | 0.00 | 0.00 | 0.00 | 89 | 1014.9 |
| 20260901091517 | 62 | 319 | 0.0 | 0.0 | 0.00 | 0.00 | 0.00 | 89 | 1015.0 |
| 20260901090016 | 62 | 319 | 0.0 | 0.0 | 0.00 | 0.00 | 0.00 | 89 | 1015.2 |
| 20260901084516 | 62 | 319 | 0.0 | 0.0 | 0.00 | 0.00 | 0.00 | 89 | 1015.4 |
| 20260901083015 | 62 | 319 | 0.0 | 0.0 | 0.00 | 0.00 | 0.00 | 89 | 1015.3 |
| 20260901081514 | 62 | 319 | 0.0 | 0.0 | 0.00 | 0.00 | 0.00 | 88 | 1015.5 |
| 20260901080013 | 62 | 320 | 0.0 | 0.0 | 0.00 | 0.00 | 0.00 | 89 | 1015.4 |
| 20260901074513 | 62 | 317 | 0.0 | 0.0 | 0.00 | 0.00 | 0.00 | 89 | 1015.3 |
| 20260901073014 | 62 | 317 | 0.0 | 0.0 | 0.00 | 0.00 | 0.00 | 89 | 1015.5 |
| 20260901071520 | 62 | 317 | 0.0 | 0.0 | 0.00 | 0.00 | 0.00 | 88 | 1015.4 |
| 20260901070019 | 62 | 317 | 0.0 | 0.0 | 0.00 | 0.00 | 0.00 | 88 | 1015.6 |
| 20260901064507 | 63 | 317 | 0.0 | 0.0 | 0.00 | 0.00 | 0.00 | 88 | 1015.8 |
| 20260901063006 | 63 | 317 | 0.0 | 0.0 | 0.00 | 0.00 | 0.00 | 88 | 1016.1 |
| 20260901061505 | 63 | 317 | 0.0 | 0.0 | 0.00 | 0.00 | 0.00 | 88 | 1016.0 |
| 20260901060003 | 63 | 317 | 0.0 | 0.0 | 0.00 | 0.00 | 0.00 | 88 | 1016.1 |
| 20260901054508 | 63 | 317 | 0.0 | 0.0 | 0.00 | 0.00 | 0.00 | 88 | 1016.2 |
| 20260901053001 | 63 | 317 | 0.0 | 0.0 | 0.00 | 0.00 | 0.00 | 88 | 1016.2 |
| 20260901051611 | 64 | 317 | 0.0 | 0.0 | 0.00 | 0.00 | 0.00 | 88 | 1016.3 |
| 20260901050059 | 64 | 317 | 0.0 | 0.0 | 0.00 | 0.00 | 0.00 | 88 | 1016.4 |
| 20260901044608 | 64 | 317 | 0.0 | 0.0 | 0.00 | 0.00 | 0.00 | 88 | 1016.5 |
| 20260901043057 | 64 | 317 | 0.0 | 0.0 | 0.00 | 0.00 | 0.00 | 88 | 1016.3 |
| 20260901041555 | 64 | 317 | 0.0 | 0.0 | 0.00 | 0.00 | 0.00 | 87 | 1016.3 |